Weather History for Coffeyville, KS

Change the Weather History Date:

Monday, August 5, 2013

  Actual Average Record
Temperature  
Mean Temperature 83 °F -  
Max Temperature 95 °F 89 °F 109 °F (2011)
Min Temperature 73 °F 66 °F 60 °F (2004)
Cooling Degree Days 18    
Growing Degree Days 33 (Base 50)    
Moisture  
Dew Point 74 °F    
Average Humidity 81    
Maximum Humidity 94    
Minimum Humidity 54    
Precipitation  
Precipitation 0.00 in - - ()
Sea Level Pressure  
Sea Level Pressure 29.91 in    
Wind  
Wind Speed 8 mph (ESE)    
Max Wind Speed 12 mph    
Max Gust Speed -    
Visibility 10 miles    
Events Rain , Thunderstorm    
Averages and records for this station are not official NWS values.
T = Trace of Precipitation, MM = Missing Value Source: NWS Daily Summary

Daily Weather History Graph

Daily Weather History Graph

Search for Another Location

Airport:

Trip Planner

Search our weather history database for the weather conditions in past years. The results will help you decide how hot, cold, wet, or windy it might be!

Date:

Astronomy

Aug. 05, 2013 Rise Set
Actual Time 6:30 AM CDT 8:25 PM CDT
Civil Twilight 6:02 AM CDT 8:53 PM CDT
Nautical Twilight 5:27 AM CDT 9:27 PM CDT
Astronomical Twilight 4:50 AM CDT 10:04 PM CDT
Moon 5:26 AM CDT (8/5) 7:27 PM CDT (8/5)
Length of Visible Light 14h 51m
Length of Day
13h 54m
Waning Crescent, 1% of the Moon is Illuminated
Aug 5
Waning Crescent
Aug 6
New
Aug 14
First Quarter
Aug 20
Full
Aug 28
Last Quarter

Hourly Weather History & Observations

Time (CDT) Temp. Heat Index Dew Point Humidity Pressure Visibility Wind Dir Wind Speed Gust Speed Precip Events Conditions
12:03 AM 73.4 °F - 71.6 °F 94% 30.01 in 10.0 mi NE 11.5 mph - 0.00 in Rain , Thunderstorm Light Rain
12:16 AM 73.4 °F - 71.6 °F 94% 30.01 in 10.0 mi NE 11.5 mph - 0.00 in Thunderstorm Thunderstorm
12:52 AM 73.9 °F - 72.0 °F 93% 30.00 in 10.0 mi NNE 8.1 mph - 0.00 in Thunderstorm Thunderstorm
1:50 AM 73.4 °F - 71.6 °F 94% 29.99 in 10.0 mi ENE 9.2 mph - 0.00 in   Mostly Cloudy
1:52 AM 73.9 °F - 72.0 °F 93% 29.98 in 10.0 mi ENE 9.2 mph - 0.00 in   Mostly Cloudy
1:59 AM 73.4 °F - 71.6 °F 94% 29.99 in 10.0 mi East 8.1 mph - N/A Thunderstorm Mostly Cloudy
2:14 AM 73.4 °F - 71.6 °F 94% 29.98 in 10.0 mi East 5.8 mph - N/A   Mostly Cloudy
2:52 AM 73.9 °F - 72.0 °F 93% 29.97 in 10.0 mi East 5.8 mph - N/A   Mostly Cloudy
3:52 AM 73.9 °F - 72.0 °F 93% 29.97 in 9.0 mi NE 5.8 mph - N/A   Mostly Cloudy
4:36 AM 73.4 °F - 71.6 °F 94% 29.98 in 10.0 mi ENE 8.1 mph - 0.00 in Thunderstorm Mostly Cloudy
4:52 AM 75.0 °F - 72.0 °F 90% 29.96 in 10.0 mi East 4.6 mph - 0.00 in   Mostly Cloudy
5:06 AM 75.2 °F - 71.6 °F 89% 29.98 in 10.0 mi ENE 5.8 mph - N/A   Mostly Cloudy
5:52 AM 75.9 °F - 72.0 °F 87% 29.95 in 10.0 mi SE 6.9 mph - N/A   Mostly Cloudy
6:11 AM 75.2 °F - 71.6 °F 89% 29.96 in 10.0 mi ESE 10.4 mph - 0.00 in Rain Light Rain
6:52 AM 77.0 °F - 72.0 °F 84% 29.94 in 9.0 mi SSE 8.1 mph - 0.00 in   Clear
7:52 AM 77.0 °F - 73.0 °F 88% 29.92 in 9.0 mi SSE 8.1 mph - N/A   Mostly Cloudy
8:52 AM 80.1 °F 84.5 °F 73.9 °F 81% 29.93 in 10.0 mi SSE 10.4 mph - N/A   Clear
9:52 AM 82.0 °F 87.9 °F 73.9 °F 76% 29.91 in 10.0 mi South 11.5 mph - N/A   Mostly Cloudy
10:52 AM 84.0 °F 91.9 °F 75.0 °F 74% 29.89 in 10.0 mi SSW 10.4 mph - N/A   Clear
11:52 AM 87.1 °F 96.3 °F 75.0 °F 67% 29.88 in 10.0 mi SSW 11.5 mph - N/A   Partly Cloudy
12:52 PM 88.0 °F 98.5 °F 75.9 °F 67% 29.87 in 10.0 mi SSW 9.2 mph - N/A   Mostly Cloudy
1:52 PM 90.0 °F 100.2 °F 75.0 °F 61% 29.87 in 10.0 mi SW 8.1 mph - N/A   Overcast
2:52 PM 91.0 °F 102.9 °F 75.9 °F 61% 29.86 in 10.0 mi Variable 3.5 mph - N/A   Partly Cloudy
3:52 PM 91.9 °F 103.9 °F 75.9 °F 59% 29.84 in 10.0 mi Variable 3.5 mph - N/A   Mostly Cloudy
4:52 PM 93.9 °F 105.4 °F 75.0 °F 54% 29.81 in 10.0 mi Calm Calm - N/A   Clear
5:52 PM 93.9 °F 106.9 °F 75.9 °F 56% 29.80 in 10.0 mi South 3.5 mph - N/A   Clear
6:52 PM 91.0 °F 106.2 °F 78.1 °F 66% 29.79 in 10.0 mi South 5.8 mph - N/A   Clear
7:52 PM 88.0 °F 101.3 °F 78.1 °F 72% 29.79 in 10.0 mi SE 3.5 mph - N/A   Clear
8:52 PM 84.9 °F 96.6 °F 78.1 °F 80% 29.78 in 10.0 mi SE 4.6 mph - N/A   Clear
9:52 PM 84.0 °F 96.0 °F 79.0 °F 85% 29.80 in 10.0 mi East 4.6 mph - N/A   Clear
10:52 PM 84.0 °F 94.8 °F 78.1 °F 82% 29.79 in 10.0 mi SSE 4.6 mph - N/A   Clear
11:52 PM 82.9 °F 92.8 °F 78.1 °F 85% 29.81 in 10.0 mi ESE 3.5 mph - N/A   Scattered Clouds